Weather History for KINF - June, 2013

Change the Weather History Date:

Friday, June 14, 2013

  Actual Average (KGNV) Record (KGNV)
Temperature  
Mean Temperature 80 °F 80 °F  
Max Temperature 89 °F 90 °F 102 °F (1977)
Min Temperature 71 °F 69 °F 59 °F (1980)
Degree Days  
Heating Degree Days 0 0  
Month to date heating degree days 0  
Since 1 June heating degree days 0  
Since 1 July heating degree days 1218  
Cooling Degree Days 15 15  
Month to date cooling degree days 194  
Year to date cooling degree days 704  
Since 1 June cooling degree days 194  
Growing Degree Days 30 (Base 50)    
Moisture  
Dew Point 72 °F    
Average Humidity 79    
Maximum Humidity 100    
Minimum Humidity 52    
Precipitation  
Precipitation 0.00 in 0.25 in 3.25 in (1902)
Month to date precipitation 2.87  
Year to date precipitation 18.86  
Snow  
Snow 0.00 in 0.00 in 0.00 in ()
Month to date snowfall 0.0  
Since 1 June snowfall 0.0  
Since 1 July snowfall 0.0  
Snow Depth -    
Sea Level Pressure  
Sea Level Pressure 29.92 in    
Wind  
Wind Speed 3 mph (SW)    
Max Wind Speed 9 mph    
Max Gust Speed -    
Visibility 10 miles    
Events      
T = Trace of Precipitation, MM = Missing Value Source: NWS Daily Summary

Daily Weather History Graph

Daily Weather History Graph

Search for Another Location

Airport or City:

Trip Planner

Search our weather history database for the weather conditions in past years. The results will help you decide how hot, cold, wet, or windy it might be!

Date:

Astronomy

Jun. 14, 2013 Rise Set
Actual Time 6:30 AM EDT 8:28 PM EDT
Civil Twilight 6:03 AM EDT 8:55 PM EDT
Nautical Twilight 5:30 AM EDT 9:28 PM EDT
Astronomical Twilight 4:56 AM EDT 10:03 PM EDT
Moon 11:41 AM EDT (6/14) No Moon Set
Length of Visible Light 14h 52m
Length of Day
13h 58m
Waxing Crescent, 30% of the Moon is Illuminated
Jun 14
Waxing Crescent
Jun 16
First Quarter
Jun 23
Full
Jun 30
Last Quarter
Jul 8
New

Hourly Weather History & Observations

Time (EDT) Temp. Heat Index Dew Point Humidity Pressure Visibility Wind Dir Wind Speed Gust Speed Precip Events Conditions
12:15 AM 73.4 °F - 71.6 °F 94% 29.96 in 7.0 mi Calm Calm - N/A   Clear
12:55 AM 73.4 °F - 71.6 °F 94% 29.94 in 7.0 mi South 3.5 mph - N/A   Clear
1:15 AM 73.4 °F - 71.6 °F 94% 29.93 in 7.0 mi South 5.8 mph - N/A   Clear
1:35 AM 71.6 °F - 71.6 °F 100% 29.93 in 7.0 mi South 3.5 mph - N/A   Clear
1:55 AM 73.4 °F - 71.6 °F 94% 29.93 in 7.0 mi SSW 3.5 mph - N/A   Clear
2:15 AM 73.4 °F - 71.6 °F 94% 29.93 in 7.0 mi Calm Calm - N/A   Clear
2:35 AM 73.4 °F - 71.6 °F 94% 29.93 in 7.0 mi Calm Calm - N/A   Clear
2:55 AM 73.4 °F - 71.6 °F 94% 29.93 in 10.0 mi Calm Calm - N/A   Clear
3:15 AM 73.4 °F - 71.6 °F 94% 29.93 in 10.0 mi Calm Calm - N/A   Scattered Clouds
3:35 AM 73.4 °F - 71.6 °F 94% 29.92 in 7.0 mi Calm Calm - N/A   Scattered Clouds
3:55 AM 73.4 °F - 71.6 °F 94% 29.91 in 10.0 mi Calm Calm - N/A   Clear
4:15 AM 73.4 °F - 71.6 °F 94% 29.90 in 10.0 mi Calm Calm - N/A   Clear
4:35 AM 73.4 °F - 71.6 °F 94% 29.89 in 10.0 mi South 4.6 mph - N/A   Clear
4:55 AM 73.4 °F - 71.6 °F 94% 29.90 in 10.0 mi Calm Calm - N/A   Clear
5:15 AM 73.4 °F - 71.6 °F 94% 29.90 in 10.0 mi Calm Calm - N/A   Scattered Clouds
5:35 AM 71.6 °F - 71.6 °F 100% 29.90 in 10.0 mi Calm Calm - N/A   Clear
5:55 AM 71.6 °F - 71.6 °F 100% 29.90 in 7.0 mi Calm Calm - N/A   Clear
6:15 AM 71.6 °F - 71.6 °F 100% 29.90 in 10.0 mi SSW 4.6 mph - N/A   Scattered Clouds
6:35 AM 71.6 °F - 71.6 °F 100% 29.90 in 10.0 mi South 4.6 mph - N/A   Clear
6:55 AM 73.4 °F - 71.6 °F 94% 29.91 in 10.0 mi Calm Calm - N/A   Clear
7:15 AM 73.4 °F - 71.6 °F 94% 29.91 in 10.0 mi Calm Calm - N/A   Clear
7:35 AM 73.4 °F - 73.4 °F 100% 29.91 in 10.0 mi Calm Calm - N/A   Clear
7:55 AM 77.0 °F - 73.4 °F 89% 29.92 in 10.0 mi Calm Calm - N/A   Clear
8:15 AM 78.8 °F - 73.4 °F 83% 29.92 in 10.0 mi Calm Calm - N/A   Clear
8:35 AM 80.6 °F 85.4 °F 73.4 °F 79% 29.92 in 10.0 mi Calm Calm - N/A   Clear
8:55 AM 80.6 °F 85.4 °F 73.4 °F 79% 29.93 in 10.0 mi Calm Calm - N/A   Clear
9:15 AM 82.4 °F 87.2 °F 71.6 °F 70% 29.93 in 10.0 mi WSW 3.5 mph - N/A   Mostly Cloudy
9:35 AM 84.2 °F 89.6 °F 71.6 °F 66% 29.93 in 10.0 mi West 4.6 mph - N/A   Mostly Cloudy
9:55 AM 82.4 °F 87.2 °F 71.6 °F 70% 29.93 in 10.0 mi WSW 5.8 mph - N/A   Mostly Cloudy
10:15 AM 84.2 °F 89.6 °F 71.6 °F 66% 29.93 in 10.0 mi SW 8.1 mph - N/A   Mostly Cloudy
10:35 AM 84.2 °F 88.4 °F 69.8 °F 62% 29.94 in 10.0 mi West 6.9 mph - N/A   Mostly Cloudy
10:55 AM 82.4 °F 87.2 °F 71.6 °F 70% 29.95 in 10.0 mi WSW 5.8 mph - N/A   Scattered Clouds
11:15 AM 86.0 °F 90.4 °F 69.8 °F 58% 29.95 in 10.0 mi WNW 5.8 mph - N/A   Scattered Clouds
11:35 AM 82.4 °F 86.3 °F 69.8 °F 66% 29.96 in 10.0 mi West 6.9 mph - N/A   Scattered Clouds
11:55 AM 82.4 °F 86.3 °F 69.8 °F 66% 29.96 in 10.0 mi WSW 5.8 mph - N/A   Scattered Clouds
12:15 PM 82.4 °F 87.2 °F 71.6 °F 70% 29.95 in 10.0 mi West 3.5 mph - N/A   Scattered Clouds
12:35 PM 80.6 °F 84.6 °F 71.6 °F 74% 29.95 in 10.0 mi WSW 5.8 mph - N/A   Clear
12:55 PM 82.4 °F 87.2 °F 71.6 °F 70% 29.94 in 10.0 mi SW 5.8 mph - N/A   Clear
1:15 PM 86.0 °F 91.8 °F 71.6 °F 62% 29.93 in 10.0 mi SW 9.2 mph - N/A   Clear
1:35 PM 86.0 °F 91.8 °F 71.6 °F 62% 29.91 in 10.0 mi SW 8.1 mph - N/A   Scattered Clouds
1:55 PM 87.8 °F 92.6 °F 69.8 °F 55% 29.91 in 10.0 mi SW 8.1 mph - N/A   Scattered Clouds
2:15 PM 89.6 °F 94.7 °F 69.8 °F 52% 29.91 in 10.0 mi WNW 4.6 mph - N/A   Scattered Clouds
2:35 PM 87.8 °F 92.6 °F 69.8 °F 55% 29.90 in 10.0 mi West 5.8 mph - N/A   Scattered Clouds
2:55 PM 87.8 °F 92.6 °F 69.8 °F 55% 29.90 in 10.0 mi SW 8.1 mph - N/A   Scattered Clouds
3:15 PM 87.8 °F 93.8 °F 71.6 °F 58% 29.92 in 10.0 mi WNW 4.6 mph - N/A   Scattered Clouds
3:35 PM 86.0 °F 91.8 °F 71.6 °F 62% 29.91 in 10.0 mi WSW 4.6 mph - N/A   Scattered Clouds
3:55 PM 86.0 °F 91.8 °F 71.6 °F 62% 29.91 in 10.0 mi WSW 5.8 mph - N/A   Clear
4:15 PM 86.0 °F 91.8 °F 71.6 °F 62% 29.90 in 10.0 mi WSW 3.5 mph - N/A   Scattered Clouds
4:35 PM 86.0 °F 91.8 °F 71.6 °F 62% 29.89 in 10.0 mi WSW 6.9 mph - N/A   Mostly Cloudy
4:55 PM 86.0 °F 93.4 °F 73.4 °F 66% 29.89 in 10.0 mi SW 6.9 mph - N/A   Scattered Clouds
5:15 PM 84.2 °F 89.6 °F 71.6 °F 66% 29.89 in 10.0 mi WSW 4.6 mph - N/A   Mostly Cloudy
5:35 PM 86.0 °F 93.4 °F 73.4 °F 66% 29.88 in 10.0 mi West 9.2 mph - N/A   Mostly Cloudy
5:55 PM 84.2 °F 90.9 °F 73.4 °F 70% 29.89 in 10.0 mi West 5.8 mph - N/A   Mostly Cloudy
6:15 PM 84.2 °F 90.9 °F 73.4 °F 70% 29.90 in 10.0 mi SW 5.8 mph - N/A   Mostly Cloudy
6:35 PM 82.4 °F 88.2 °F 73.4 °F 74% 29.91 in 10.0 mi West 3.5 mph - N/A   Mostly Cloudy
6:55 PM 82.4 °F 88.2 °F 73.4 °F 74% 29.89 in 10.0 mi SW 6.9 mph - N/A   Mostly Cloudy
7:15 PM 82.4 °F 88.2 °F 73.4 °F 74% 29.89 in 10.0 mi SW 6.9 mph - N/A   Scattered Clouds
7:35 PM 82.4 °F 88.2 °F 73.4 °F 74% 29.91 in 10.0 mi SW 5.8 mph - N/A   Mostly Cloudy
7:55 PM 82.4 °F 88.2 °F 73.4 °F 74% 29.92 in 10.0 mi West 3.5 mph - N/A   Overcast
8:15 PM 80.6 °F 85.4 °F 73.4 °F 79% 29.91 in 10.0 mi SW 4.6 mph - N/A   Overcast
8:35 PM 80.6 °F 85.4 °F 73.4 °F 79% 29.91 in 10.0 mi SW 3.5 mph - N/A   Scattered Clouds
8:55 PM 80.6 °F 86.2 °F 75.2 °F 84% 29.92 in 10.0 mi SSW 4.6 mph - N/A   Clear
9:15 PM 80.6 °F 86.2 °F 75.2 °F 84% 29.93 in 10.0 mi Calm Calm - N/A   Scattered Clouds
9:35 PM 80.6 °F 86.2 °F 75.2 °F 84% 29.93 in 10.0 mi SW 3.5 mph - N/A   Mostly Cloudy
9:55 PM 80.6 °F 86.2 °F 75.2 °F 84% 29.93 in 10.0 mi SSW 4.6 mph - N/A   Scattered Clouds
10:15 PM 80.6 °F 86.2 °F 75.2 °F 84% 29.93 in 10.0 mi SSW 3.5 mph - N/A   Scattered Clouds
10:35 PM 80.6 °F 86.2 °F 75.2 °F 84% 29.93 in 10.0 mi South 3.5 mph - N/A   Mostly Cloudy
10:55 PM 78.8 °F - 75.2 °F 89% 29.94 in 10.0 mi Calm Calm - N/A   Mostly Cloudy
11:15 PM 78.8 °F - 75.2 °F 89% 29.96 in 10.0 mi Calm Calm - N/A   Mostly Cloudy
11:35 PM 78.8 °F - 75.2 °F 89% 29.96 in 10.0 mi Calm Calm - N/A   Mostly Cloudy
11:55 PM 78.8 °F - 75.2 °F 89% 29.95 in 10.0 mi South 4.6 mph - N/A   Scattered Clouds